Sitka, Alaska, United States (99835)
Lat: 57.05N, Lon: 135.33W
Wx Zone: AKZ023
Local Info
Past Weather Observations for Friday, April 11, 2014

NOTE: This archive is for the closest National Weather Service station to Sitka. Information may differ from the station used for current weather conditions.

Time Weather Temperature Dewpoint Humidity Pressure Winds Precip Visibility
23:53
Clear
34°F / 1°C 28°F / -2°C 81% 30.33 in
(1027 mb)
E 4.6 mph
(E 7 kph)
- 10SM
22:53
Clear
34°F / 1°C 28°F / -2°C 81% 30.33 in
(1027 mb)
Calm - 10SM
21:53
Clear
37°F / 3°C 30°F / -1°C 75% 30.3 in
(1026 mb)
Calm - 10SM
20:53
Clear
37°F / 3°C 28°F / -2°C 70% 30.3 in
(1026 mb)
E 3.5 mph
(E 6 kph)
- 10SM
19:53
Clear
39°F / 4°C 30°F / -1°C 70% 30.27 in
(1025 mb)
SE 3.5 mph
(SE 6 kph)
- 10SM
18:53
Clear
46°F / 8°C 25°F / -4°C 43% 30.27 in
(1025 mb)
SSE 6.9 mph
(SSE 11 kph)
- 10SM
17:53
Clear
46°F / 8°C 27°F / -3°C 46% 30.24 in
(1024 mb)
NNW 11.5 mph
(NNW 19 kph)
- 10SM
16:53
Clear
48°F / 9°C 30°F / -1°C 50% 30.24 in
(1024 mb)
NW 6.9 mph
(NW 11 kph)
- 10SM
15:53
Clear
48°F / 9°C 25°F / -4°C 40% 30.21 in
(1023 mb)
NW 10.4 mph
(NW 17 kph)
- 10SM
14:53
Clear
48°F / 9°C 27°F / -3°C 43% 30.21 in
(1023 mb)
NNW 12.7 mph
(NNW 20 kph)
- 10SM
13:53
Clear
46°F / 8°C 27°F / -3°C 46% 30.21 in
(1023 mb)
NW 13.8 mph
(NW 22 kph)
- 10SM
12:53
Clear
46°F / 8°C 25°F / -4°C 43% 30.21 in
(1023 mb)
NW 11.5 mph
(NW 19 kph)
- 10SM
11:53
Clear
46°F / 8°C 25°F / -4°C 43% 30.21 in
(1023 mb)
NW 11.5 mph
(NW 19 kph)
- 10SM
10:53
Clear
45°F / 7°C 21°F / -6°C 39% 30.18 in
(1022 mb)
NW 12.7 mph
(NW 20 kph)
- 10SM
09:53
Clear
43°F / 6°C 28°F / -2°C 57% 30.15 in
(1021 mb)
SSE 3.5 mph
(SSE 6 kph)
- 10SM
08:53
Clear
39°F / 4°C 30°F / -1°C 70% 30.12 in
(1020 mb)
S 3.5 mph
(S 6 kph)
- 10SM
07:53
Clear
37°F / 3°C 30°F / -1°C 75% 30.09 in
(1019 mb)
Calm - 10SM
06:53
Clear
36°F / 2°C 32°F / 0°C 87% 30.06 in
(1018 mb)
SE 4.6 mph
(SE 7 kph)
- 10SM
05:53
Clear
34°F / 1°C 30°F / -1°C 87% 30.06 in
(1018 mb)
E 4.6 mph
(E 7 kph)
- 10SM
04:53
Clear
36°F / 2°C 25°F / -4°C 65% 30.04 in
(1017 mb)
N 13.8 mph
(N 22 kph)
- 10SM
03:53
Clear
37°F / 3°C 28°F / -2°C 70% 30.01 in
(1016 mb)
NNW 17.3 mph
(NNW 28 kph)
- 10SM
02:53
Clear
37°F / 3°C 28°F / -2°C 70% 29.95 in
(1014 mb)
NNW 21.9 mph
(NNW 35 kph)
- 10SM
01:53
Partly Cloudy
37°F / 3°C 28°F / -2°C 70% 29.92 in
(1013 mb)
NNW 16.1 mph
(NNW 26 kph)
- 10SM
00:53
Overcast
39°F / 4°C 30°F / -1°C 70% 29.89 in
(1012 mb)
NNW 17.3 mph
(NNW 28 kph)
- 10SM
Time Weather Temperature Dewpoint Humidity Pressure Winds Precip Visibility


Weather for websites

WeatherForYou.com, LLC is not responsible for any damages or problems caused by this service. Current weather conditions are obtained from the closest station including government and personal stations which may have varying degrees of accuracy. Weather forecasts are derived from the NOAA NDFD. Like all things, this site belongs to Jesus Christ... He just trusts me to maintain it. If you have any questions or comments email webmaster@weatherforyou.com

Copyright © 2014, WeatherForYou.com LLC. All rights reserved.